#timestamp,LO_Frequency,Hit,StdDev 
1634976015.9,286046999.0,N
1634976035.7,286046999.2,N
1634976055.6,286046997.1,N
1634976075.4,286046995.5,Y
1634976095.2,286046997.9,P
1634976115.1,286046996.8,P
1634976116.0,286046996.8,P
1634976135.8,286046998.7,N
1634976155.6,286047000.5,N
1634976175.5,286047000.3,N
1634976195.3,286047000.0,N
1634976215.2,286047002.7,N
1634976235.9,286046999.9,N
1634976255.7,286047000.1,N
1634976275.6,286047002.8,N
1634976295.4,286046999.8,N
1634976315.2,286047000.0,N
1634976335.1,286047000.9,N
1634976336.0,286047000.9,N
1634976355.8,286046998.5,N
1634976375.7,286047002.3,N
1634976395.5,286047001.0,N
1634976415.3,286046998.6,N
1634976435.2,286046998.2,N
1634976455.0,286046998.3,N
1634976455.9,286046998.3,N
1634976475.7,286046998.6,N
1634976495.6,286046998.5,N
1634976515.4,286046999.0,N
1634976535.3,286046998.8,N
1634976555.1,286047001.1,N
1634976556.0,286047001.1,N
1634976575.8,286047000.8,N
1634976595.7,286047000.6,N
1634976615.5,286047000.5,N
1634976635.3,286047000.4,N
1634976655.2,286047000.4,N
1634976675.0,286046999.9,N
1634976675.9,286046999.9,N
1634976695.8,286047001.8,N
1634976715.6,286047001.6,N
1634976735.4,286047002.3,N
1634976755.3,286047002.6,N
1634976775.1,286047002.3,N
1634976795.9,286047002.6,N
1634976815.7,286047002.1,N
1634976835.5,286047000.3,N
1634976855.4,286047002.8,N
1634976875.2,286046999.7,N
1634976895.0,286046999.7,N
1634976895.9,286046999.7,N
1634976915.8,286046999.8,N
1634976935.6,286047000.0,N
1634976955.5,286047001.0,N
1634976975.3,286046998.1,N
1634976995.1,286047001.0,N
1634977015.9,286046998.9,N
1634977035.7,286046999.4,N
1634977055.6,286046996.5,N
1634977075.4,286046998.4,N
1634977095.2,286046998.1,N
1634977115.1,286046999.9,N
1634977116.0,286046999.9,N
1634977135.8,286047002.4,N
1634977155.7,286047002.7,N
1634977175.5,286047000.9,N
1634977195.3,286047001.1,N
1634977215.2,286047000.9,N
1634977235.9,286047000.2,N
1634977255.7,286047002.1,N
1634977275.6,286047002.7,N
1634977295.4,286047001.5,N
1634977315.3,286047001.8,N
1634977335.1,286047002.1,N
1634977336.0,286047002.1,N
1634977355.8,286047001.3,N
1634977375.7,286047002.3,N
1634977395.5,286047002.3,N
1634977415.3,286047002.7,N
1634977435.2,286047002.1,N
1634977455.0,286046999.9,N
1634977455.9,286046999.9,N
1634977475.8,286047002.7,N
1634977495.6,286047002.4,N
1634977515.4,286046999.7,N
1634977535.3,286046999.9,N
1634977555.1,286047000.1,N
1634977575.8,286047000.3,N
1634977595.7,286047000.4,N
1634977615.5,286046998.6,N
1634977635.4,286046999.2,N
1634977655.2,286046998.9,N
1634977675.0,286046998.9,N
1634977675.9,286046998.9,N
1634977695.8,286046998.7,N
1634977715.6,286046998.3,N
1634977735.4,286046998.1,N
1634977755.3,286046998.2,N
1634977775.1,286046999.4,N
1634977795.9,286046999.6,N
1634977815.7,286046999.0,N
1634977835.5,286046999.5,N
1634977855.4,286046999.6,N
1634977875.2,286046996.5,N
1634977895.1,286046998.9,N
1634977896.0,286046998.9,N
1634977915.8,286047000.8,N
1634977935.6,286046998.9,N
1634977955.5,286046996.7,N
1634977975.3,286046999.2,N
1634977995.1,286046998.8,N
1634978015.9,286046996.7,N
1634978035.7,286046996.5,N
1634978055.6,286046997.3,N
1634978075.4,286046997.1,N
1634978095.2,286046997.5,N
1634978115.1,286046997.5,N
1634978116.0,286046997.5,N
1634978135.8,286046997.1,N
1634978155.6,286046999.0,N
1634978175.5,286046996.7,Y
1634978195.3,286046999.3,P
1634978215.2,286046999.1,N
1634978235.9,286046997.2,P
1634978255.7,286046996.0,Y
1634978275.6,286046998.0,P
1634978295.4,286046996.8,P
1634978315.3,286046996.8,P
1634978335.1,286046999.1,N
1634978336.0,286046999.1,N
1634978355.8,286046999.1,N
1634978375.7,286046999.1,N
1634978395.5,286046999.6,N
1634978415.4,286046997.3,N
1634978435.2,286046999.5,N
1634978455.0,286046997.9,N
1634978455.9,286046997.9,N
1634978475.8,286046997.4,N
1634978495.6,286046998.9,N
1634978515.4,286046999.2,N
1634978535.3,286046998.4,N
1634978555.1,286046998.8,N
1634978575.9,286046998.3,N
1634978595.7,286046998.6,N
1634978615.5,286046998.9,N
1634978635.4,286046999.1,N
1634978655.2,286046996.6,Y
1634978675.0,286046998.2,P
1634978675.9,286046998.2,P
1634978695.8,286046998.9,P
1634978715.6,286046999.0,Y
1634978735.5,286046998.2,P
1634978755.3,286046999.1,P
1634978775.1,286046996.6,P
1634978795.9,286046998.4,N
1634978815.7,286047001.0,N
1634978835.6,286046999.8,N
1634978855.4,286047000.8,N
1634978875.2,286047001.2,N
1634978895.1,286047000.6,N
1634978896.0,286047000.6,N
1634978915.8,286047000.1,N
1634978935.6,286047000.4,N
1634978955.5,286047000.1,N
1634978975.3,286047000.7,N
1634978995.2,286046998.6,N
1634979015.9,286046998.8,N
1634979035.7,286046999.0,N
1634979055.6,286046999.3,N
1634979075.4,286046998.5,N
1634979095.2,286046998.8,N
1634979115.1,286046999.9,N
1634979116.0,286046999.9,N
1634979135.8,286047000.6,N
1634979155.7,286046996.5,Y
1634979175.5,286046998.4,P
1634979195.3,286047000.9,N
1634979215.2,286047000.2,N
1634979235.0,286047002.7,N
1634979235.9,286047002.7,N
1634979255.8,286047002.3,N
1634979275.6,286047001.7,N
1634979295.4,286046999.9,N
1634979315.3,286047000.3,N
1634979335.1,286046998.3,N
1634979355.8,286046999.3,N
1634979375.7,286046998.8,N
1634979395.5,286046998.7,N
1634979415.4,286046998.9,N
1634979435.2,286046999.4,N
1634979455.0,286046998.1,N
1634979455.9,286046998.1,N
1634979475.8,286046998.6,N
1634979495.6,286046999.0,N
1634979515.4,286046999.6,N
1634979535.3,286046999.1,N
1634979555.1,286046996.6,N
1634979575.9,286046999.0,N
1634979595.7,286046999.2,N
